User: anonymous
Location: Caltech
(34.1382°N, 118.1253°W)
Time: 11:52:04
(UTC-07:00)
Language:

Iridium 65 - Orbit

View from above orbital plane
View from above orbital plane
View from above satellite
View from above satellite

Ground track
Ground track

The orbit data is extracted from the following two-line orbital elements,

1 25288U 98021D   14245.20615125  .00000237  00000-0  77498-4 0  8892
2 25288 086.3938 289.7927 0002495 105.1124 318.9627 14.34219193858961
Epoch (UTC): 02 September 2014 04:56:51
Eccentricity: 0.0002495
inclination: 86.3938°
perigee height: 776 km
apogee height: 779 km
right ascension of ascending node: 289.7927°
argument of perigee: 105.1124°
revolutions per day: 14.34219193
mean anomaly at epoch: 318.9627°
orbit number at epoch: 85896

The dashed part of the orbit path shows where the satellite is in the earth's shadow,  

DLR